• In Belgien
  • Länderverzeichnis
  • Für 7 Tage
  • Wassertemperatur
  • Satellitenkarten
  • Wetterkarte
  • Widgets
  • user-avatar
    Anmelden

    Stündliche Wetter Barra

    Heute, 23 Februar, Freitag

    Zeit Temperatur Niederschläge Wind Luftdruck Luftfeuchtigkeit
    00:00 +25°C° 0,4 mm 2 m/S 744 mmHg 93%
    01:00 +25°C° 0,4 mm 2 m/S 744 mmHg 93%
    02:00 +25°C° 0,2 mm 2 m/S 744 mmHg 93%
    03:00 +25°C° 0,2 mm 2 m/S 744 mmHg 93%
    04:00 +25°C° 0 mm 2 m/S 744 mmHg 93%
    05:00 +25°C° 0,2 mm 2 m/S 744 mmHg 94%
    06:00 +25°C° 0,2 mm 2 m/S 744 mmHg 94%
    07:00 +25°C° 0,2 mm 2 m/S 744 mmHg 95%
    08:00 +26°C° 1,3 mm 2 m/S 745 mmHg 91%
    09:00 +27°C° 1,3 mm 2 m/S 745 mmHg 87%
    10:00 +28°C° 1,3 mm 1 m/S 745 mmHg 83%
    11:00 +30°C° 1 mm 2 m/S 745 mmHg 77%
    12:00 +31°C° 1 mm 3 m/S 744 mmHg 70%
    13:00 +34°C° 1 mm 3 m/S 744 mmHg 64%
    14:00 +31°C° 1,9 mm 3 m/S 744 mmHg 73%
    15:00 +29°C° 1,9 mm 3 m/S 744 mmHg 82%
    16:00 +27°C° 1,9 mm 3 m/S 744 mmHg 92%
    17:00 +27°C° 1 mm 3 m/S 744 mmHg 93%
    18:00 +26°C° 1 mm 3 m/S 744 mmHg 94%
    19:00 +26°C° 1 mm 4 m/S 744 mmHg 95%
    20:00 +26°C° 0,2 mm 3 m/S 745 mmHg 95%
    21:00 +26°C° 0,2 mm 3 m/S 745 mmHg 95%
    22:00 +26°C° 0,2 mm 3 m/S 745 mmHg 95%
    23:00 +26°C° 1,1 mm 3 m/S 745 mmHg 95%

    Morgen, 24 Februar, Samstag

    Zeit Temperatur Niederschläge Wind Luftdruck Luftfeuchtigkeit
    00:00 +26°C° 1,1 mm 3 m/S 745 mmHg 94%
    01:00 +26°C° 1,1 mm 3 m/S 745 mmHg 94%
    02:00 +25°C° 1,6 mm 3 m/S 744 mmHg 95%
    03:00 +25°C° 1,6 mm 3 m/S 744 mmHg 95%
    04:00 +25°C° 1,6 mm 3 m/S 744 mmHg 95%
    05:00 +25°C° 0,9 mm 3 m/S 744 mmHg 95%
    06:00 +26°C° 0,9 mm 3 m/S 745 mmHg 95%
    07:00 +26°C° 0,9 mm 3 m/S 745 mmHg 95%
    08:00 +27°C° 0,8 mm 3 m/S 745 mmHg 92%
    09:00 +28°C° 0,8 mm 3 m/S 745 mmHg 89%
    10:00 +29°C° 0,8 mm 3 m/S 746 mmHg 85%
    11:00 +30°C° 1,7 mm 4 m/S 745 mmHg 80%
    12:00 +32°C° 1,7 mm 4 m/S 745 mmHg 76%
    13:00 +33°C° 1,7 mm 4 m/S 745 mmHg 71%
    14:00 +32°C° 1,5 mm 4 m/S 744 mmHg 76%
    15:00 +30°C° 1,5 mm 4 m/S 744 mmHg 81%
    16:00 +29°C° 1,5 mm 4 m/S 743 mmHg 86%
    17:00 +28°C° 1,3 mm 4 m/S 744 mmHg 89%
    18:00 +27°C° 1,3 mm 4 m/S 744 mmHg 92%
    19:00 +26°C° 1,3 mm 4 m/S 745 mmHg 95%
    20:00 +26°C° 0,5 mm 3 m/S 745 mmHg 95%
    21:00 +26°C° 0,5 mm 3 m/S 746 mmHg 96%
    22:00 +26°C° 0,5 mm 3 m/S 746 mmHg 96%
    23:00 +26°C° 1,5 mm 3 m/S 746 mmHg 95%

    übermorgen, 25 Februar, Sonntag

    Zeit Temperatur Niederschläge Wind Luftdruck Luftfeuchtigkeit
    00:00 +26°C° 1,5 mm 3 m/S 745 mmHg 95%
    01:00 +25°C° 1,5 mm 4 m/S 745 mmHg 95%
    02:00 +25°C° 0,7 mm 3 m/S 744 mmHg 95%
    03:00 +25°C° 0,7 mm 3 m/S 744 mmHg 95%
    04:00 +25°C° 0,7 mm 3 m/S 744 mmHg 95%
    05:00 +25°C° 0,9 mm 3 m/S 744 mmHg 94%
    06:00 +25°C° 0,9 mm 3 m/S 744 mmHg 94%
    07:00 +25°C° 0,9 mm 3 m/S 745 mmHg 93%
    08:00 +27°C° 1,8 mm 3 m/S 745 mmHg 88%
    09:00 +28°C° 1,8 mm 3 m/S 745 mmHg 82%
    10:00 +30°C° 1,8 mm 3 m/S 745 mmHg 76%
    11:00 +30°C° 1,4 mm 3 m/S 745 mmHg 76%
    12:00 +31°C° 1,4 mm 3 m/S 744 mmHg 76%
    13:00 +31°C° 1,4 mm 3 m/S 744 mmHg 76%
    14:00 +32°C° 1 mm 4 m/S 743 mmHg 77%
    15:00 +32°C° 1 mm 4 m/S 743 mmHg 78%
    16:00 +32°C° 1 mm 4 m/S 742 mmHg 78%
    17:00 +30°C° 1 mm 3 m/S 743 mmHg 83%
    18:00 +28°C° 1 mm 3 m/S 743 mmHg 87%
    19:00 +27°C° 1 mm 3 m/S 743 mmHg 91%
    20:00 +27°C° 0,5 mm 3 m/S 744 mmHg 91%
    21:00 +26°C° 0,5 mm 4 m/S 744 mmHg 91%
    22:00 +26°C° 0,5 mm 4 m/S 745 mmHg 92%
    23:00 +26°C° 0,8 mm 4 m/S 744 mmHg 92%

    26 Februar, Montag

    Zeit Temperatur Niederschläge Wind Luftdruck Luftfeuchtigkeit
    00:00 +26°C° 0,8 mm 3 m/S 744 mmHg 93%
    01:00 +26°C° 0,8 mm 3 m/S 744 mmHg 93%
    02:00 +26°C° 0,6 mm 3 m/S 744 mmHg 93%
    03:00 +25°C° 0,6 mm 3 m/S 743 mmHg 93%
    04:00 +25°C° 0,6 mm 3 m/S 743 mmHg 92%
    05:00 +25°C° 0 mm 2 m/S 743 mmHg 92%
    06:00 +25°C° 0 mm 2 m/S 744 mmHg 91%
    07:00 +26°C° 0 mm 2 m/S 744 mmHg 90%
    08:00 +28°C° 0,1 mm 2 m/S 745 mmHg 81%
    09:00 +30°C° 0,1 mm 2 m/S 745 mmHg 71%
    10:00 +34°C° 0,1 mm 2 m/S 745 mmHg 62%
    11:00 +34°C° 0,5 mm 2 m/S 744 mmHg 61%
    12:00 +34°C° 0,5 mm 3 m/S 744 mmHg 61%
    13:00 +35°C° 0,5 mm 3 m/S 743 mmHg 61%
    14:00 +34°C° 1,6 mm 3 m/S 743 mmHg 69%
    15:00 +33°C° 1,6 mm 4 m/S 742 mmHg 77%
    16:00 +30°C° 1,6 mm 4 m/S 742 mmHg 86%
    17:00 +29°C° 0,8 mm 4 m/S 742 mmHg 88%
    18:00 +28°C° 0,8 mm 3 m/S 743 mmHg 91%
    19:00 +27°C° 0,8 mm 3 m/S 743 mmHg 94%
    20:00 +27°C° 0,9 mm 3 m/S 744 mmHg 94%
    21:00 +27°C° 0,9 mm 3 m/S 745 mmHg 94%
    22:00 +27°C° 0,9 mm 3 m/S 745 mmHg 94%
    23:00 +26°C° 0,8 mm 3 m/S 745 mmHg 94%

    27 Februar, Dienstag

    Zeit Temperatur Niederschläge Wind Luftdruck Luftfeuchtigkeit
    00:00 +26°C° 0,8 mm 3 m/S 745 mmHg 94%
    01:00 +26°C° 0,8 mm 4 m/S 744 mmHg 94%
    02:00 +26°C° 0,4 mm 3 m/S 744 mmHg 95%
    03:00 +26°C° 0,4 mm 3 m/S 744 mmHg 95%
    04:00 +26°C° 0,4 mm 2 m/S 743 mmHg 96%
    05:00 +26°C° 0,1 mm 2 m/S 744 mmHg 95%
    06:00 +26°C° 0,1 mm 2 m/S 745 mmHg 95%
    07:00 +26°C° 0,1 mm 1 m/S 745 mmHg 95%
    08:00 +28°C° 0,1 mm 1 m/S 745 mmHg 85%
    09:00 +30°C° 0,1 mm 1 m/S 746 mmHg 75%
    10:00 +32°C° 0,1 mm 1 m/S 746 mmHg 65%
    11:00 +34°C° 0,4 mm 2 m/S 745 mmHg 64%
    12:00 +34°C° 0,4 mm 2 m/S 745 mmHg 63%
    13:00 +35°C° 0,4 mm 3 m/S 744 mmHg 62%
    14:00 +34°C° 0,5 mm 3 m/S 744 mmHg 66%
    15:00 +33°C° 0,5 mm 3 m/S 744 mmHg 71%
    16:00 +31°C° 0,5 mm 3 m/S 744 mmHg 76%
    17:00 +30°C° 0,1 mm 3 m/S 744 mmHg 81%
    18:00 +29°C° 0,1 mm 2 m/S 745 mmHg 85%
    19:00 +28°C° 0,1 mm 2 m/S 745 mmHg 90%
    20:00 +28°C° 1,1 mm 2 m/S 746 mmHg 91%
    21:00 +27°C° 1,1 mm 2 m/S 746 mmHg 92%
    22:00 +27°C° 1,1 mm 2 m/S 747 mmHg 92%
    23:00 +27°C° 0,9 mm 2 m/S 746 mmHg 93%

    28 Februar, Mittwoch

    Zeit Temperatur Niederschläge Wind Luftdruck Luftfeuchtigkeit
    00:00 +27°C° 0,9 mm 2 m/S 746 mmHg 93%
    01:00 +26°C° 0,9 mm 1 m/S 746 mmHg 94%
    02:00 +26°C° 1,6 mm 1 m/S 745 mmHg 94%
    03:00 +26°C° 1,6 mm 1 m/S 745 mmHg 94%
    04:00 +26°C° 1,6 mm 1 m/S 745 mmHg 94%
    05:00 +26°C° 0,3 mm 1 m/S 746 mmHg 94%
    06:00 +26°C° 0,3 mm 1 m/S 746 mmHg 94%
    07:00 +26°C° 0,3 mm 1 m/S 746 mmHg 95%
    08:00 +27°C° 0,1 mm 2 m/S 747 mmHg 88%
    09:00 +29°C° 0,1 mm 2 m/S 747 mmHg 82%
    10:00 +30°C° 0,1 mm 2 m/S 747 mmHg 76%
    11:00 +31°C° 0,1 mm 2 m/S 746 mmHg 72%
    12:00 +33°C° 0,1 mm 3 m/S 746 mmHg 69%
    13:00 +34°C° 0,1 mm 3 m/S 745 mmHg 66%
    14:00 +33°C° 0,1 mm 3 m/S 745 mmHg 67%
    15:00 +33°C° 0,1 mm 3 m/S 745 mmHg 68%
    16:00 +33°C° 0,1 mm 3 m/S 745 mmHg 70%
    17:00 +30°C° 0 mm 3 m/S 745 mmHg 75%
    18:00 +29°C° 0 mm 2 m/S 745 mmHg 81%
    19:00 +27°C° 0 mm 2 m/S 746 mmHg 87%
    20:00 +27°C° 0,1 mm 2 m/S 746 mmHg 89%
    21:00 +27°C° 0,1 mm 1 m/S 746 mmHg 91%
    22:00 +26°C° 0,1 mm 1 m/S 747 mmHg 93%
    23:00 +26°C° 0,1 mm 1 m/S 747 mmHg 93%
    Mehr zeigen